Location: downtown San Diego
(32.7310°N, 117.1990°W)
Time: 14:36:18
(UTC-07:00)

Cosmos 1400 Rocket - Pass Details

Date: 14 June 2018
Orbit: 523 x 568 km, 81.2° (Epoch: 20 August)

Event Time Altitude Azimuth Distance (km) Brightness Sun altitude
Exits shadow 21:33:24 34° 151° (SSE) 925 3.4 -17.1°
Maximum altitude 21:34:48 52° 95° (E) 698 3.0 -17.3°
Drops below altitude 10° 21:38:45 10° 19° (NNE) 1,840 5.8 -17.9°
Sets 21:40:57 0° 14° (NNE) 2,731 6.8 -18.2°
